Change the Weather History Date:

Thursday, January 26, 2012

  Actual Average Record
Temperature  
Mean Temperature 36 °F -  
Max Temperature 44 °F 27 °F 71 °F (2002)
Min Temperature 28 °F 8 °F -20 °F (1963)
Degree Days  
Heating Degree Days 29    
Moisture  
Dew Point 30 °F    
Average Humidity 75    
Maximum Humidity 86    
Minimum Humidity 66    
Precipitation  
Precipitation 0.00 in - - ()
Sea Level Pressure  
Sea Level Pressure 29.84 in    
Wind  
Wind Speed 12 mph (West)    
Max Wind Speed 25 mph    
Max Gust Speed 34 mph    
Visibility 9 miles    
Events      
Averages and records for this station are not official NWS values.
T = Trace of Precipitation, MM = Missing Value Source: NWS Daily Summary

Daily Weather History Graph

Daily Weather History Graph

Search for Another Location

Airport or City:

Trip Planner

Search our weather history database for the weather conditions in past years. The results will help you decide how hot, cold, wet, or windy it might be!

Date:

Astronomy

Jan. 26, 2012 Rise Set
Actual Time 7:38 AM CST 5:25 PM CST
Civil Twilight 7:07 AM CST 5:55 PM CST
Nautical Twilight 6:34 AM CST 6:29 PM CST
Astronomical Twilight 6:01 AM CST 7:02 PM CST
Moon 9:01 AM CST (1/26) 9:24 PM CST (1/26)
Length of Visible Light 10h 47m
Length of Day
9h 47m
Waxing Crescent, 12% of the Moon is Illuminated
Jan 26
Waxing Crescent
Jan 30
First Quarter
Feb 7
Full
Feb 14
Last Quarter
Feb 21
New

Hourly Weather History & Observations

Time (CST) Temp. Windchill Dew Point Humidity Pressure Visibility Wind Dir Wind Speed Gust Speed Precip Events Conditions
12:15 AM 28.4 °F 21.2 °F 24.8 °F 86% 29.89 in 5.0 mi SSE 6.9 mph - N/A   Clear
12:35 AM 32.0 °F 25.6 °F 26.6 °F 80% 29.88 in 7.0 mi SSW 6.9 mph - N/A   Clear
12:55 AM 33.8 °F 26.4 °F 28.4 °F 81% 29.87 in 7.0 mi SSW 9.2 mph - N/A   Clear
1:15 AM 33.8 °F 27.0 °F 28.4 °F 81% 29.87 in 7.0 mi South 8.1 mph - N/A   Scattered Clouds
1:35 AM 33.8 °F 26.4 °F 28.4 °F 81% 29.87 in 7.0 mi SSW 9.2 mph - N/A   Scattered Clouds
1:55 AM 33.8 °F 25.8 °F 28.4 °F 81% 29.87 in 7.0 mi SW 10.4 mph - N/A   Clear
2:15 AM 33.8 °F 27.0 °F 28.4 °F 81% 29.87 in 7.0 mi SSW 8.1 mph - N/A   Clear
2:35 AM 33.8 °F 27.0 °F 28.4 °F 81% 29.89 in 5.0 mi SSW 8.1 mph - N/A   Haze
2:55 AM 33.8 °F 24.3 °F 28.4 °F 81% 29.87 in 5.0 mi SW 13.8 mph - N/A   Haze
3:15 AM 32.0 °F 23.0 °F 26.6 °F 80% 29.87 in 5.0 mi SSW 11.5 mph - N/A   Haze
3:35 AM 32.0 °F 23.6 °F 26.6 °F 80% 29.86 in 5.0 mi SSW 10.4 mph - N/A   Haze
3:55 AM 32.0 °F 23.6 °F 26.6 °F 80% 29.86 in 5.0 mi SSW 10.4 mph - N/A   Haze
4:15 AM 30.2 °F 21.9 °F 26.6 °F 86% 29.87 in 5.0 mi SW 9.2 mph - N/A   Haze
4:35 AM 30.2 °F 22.6 °F 26.6 °F 86% 29.86 in 7.0 mi SSW 8.1 mph - N/A   Clear
4:55 AM 32.0 °F 23.0 °F 26.6 °F 80% 29.85 in 7.0 mi SW 11.5 mph - N/A   Clear
5:15 AM 30.2 °F 21.3 °F 26.6 °F 86% 29.84 in 7.0 mi WSW 10.4 mph - N/A   Clear
5:35 AM 30.2 °F 21.9 °F 24.8 °F 80% 29.85 in 7.0 mi WSW 9.2 mph - N/A   Clear
5:55 AM 30.2 °F 22.6 °F 24.8 °F 80% 29.85 in 7.0 mi West 8.1 mph - N/A   Clear
6:15 AM 30.2 °F 20.8 °F 26.6 °F 86% 29.85 in 10.0 mi West 11.5 mph - N/A   Mostly Cloudy
6:35 AM 32.0 °F 23.6 °F 26.6 °F 80% 29.85 in 10.0 mi West 10.4 mph - N/A   Overcast
6:55 AM 33.8 °F 24.8 °F 26.6 °F 75% 29.85 in 10.0 mi WNW 12.7 mph - N/A   Mostly Cloudy
7:15 AM 35.6 °F 27.5 °F 26.6 °F 70% 29.84 in 10.0 mi West 11.5 mph - N/A   Clear
7:35 AM 35.6 °F 26.2 °F 26.6 °F 70% 29.84 in 10.0 mi West 15.0 mph 18.4 mph N/A   Clear
7:55 AM 33.8 °F 25.8 °F 26.6 °F 75% 29.83 in 10.0 mi West 10.4 mph - N/A   Scattered Clouds
8:15 AM 35.6 °F 27.5 °F 28.4 °F 75% 29.84 in 10.0 mi West 11.5 mph - N/A   Mostly Cloudy
8:35 AM 35.6 °F 26.2 °F 28.4 °F 75% 29.84 in 10.0 mi West 15.0 mph - N/A   Overcast
8:55 AM 37.4 °F 28.5 °F 30.2 °F 75% 29.84 in 10.0 mi West 15.0 mph - N/A   Overcast
9:15 AM 39.2 °F 32.0 °F 30.2 °F 70% 29.84 in 10.0 mi West 11.5 mph - N/A   Overcast
9:35 AM 39.2 °F 30.8 °F 30.2 °F 70% 29.84 in 10.0 mi West 15.0 mph - N/A   Overcast
9:55 AM 39.2 °F 30.5 °F 30.2 °F 70% 29.84 in 10.0 mi West 16.1 mph - N/A   Overcast
10:15 AM 39.2 °F 31.6 °F 30.2 °F 70% 29.84 in 10.0 mi WNW 12.7 mph - N/A   Mostly Cloudy
10:35 AM 41.0 °F 33.5 °F 32.0 °F 70% 29.83 in 10.0 mi WNW 13.8 mph 19.6 mph N/A   Overcast
10:55 AM 44.6 °F 37.2 °F 33.8 °F 66% 29.83 in 10.0 mi WNW 17.3 mph 24.2 mph N/A   Scattered Clouds
11:15 AM 44.6 °F 37.2 °F 33.8 °F 66% 29.82 in 10.0 mi WNW 17.3 mph 25.3 mph N/A   Clear
11:35 AM 44.6 °F 35.9 °F 33.8 °F 66% 29.82 in 10.0 mi WNW 23.0 mph 26.5 mph N/A   Clear
11:55 AM 44.6 °F 35.5 °F 35.6 °F 71% 29.81 in 10.0 mi NW 25.3 mph 32.2 mph N/A   Clear
12:15 PM 44.6 °F 35.7 °F 35.6 °F 71% 29.80 in 10.0 mi NW 24.2 mph 34.5 mph N/A   Mostly Cloudy
12:35 PM 44.6 °F 36.4 °F 35.6 °F 71% 29.80 in 10.0 mi NW 20.7 mph 32.2 mph N/A   Mostly Cloudy
12:55 PM 44.6 °F 36.4 °F 35.6 °F 71% 29.79 in 10.0 mi NW 20.7 mph 32.2 mph N/A   Mostly Cloudy
1:15 PM 44.6 °F 36.4 °F 35.6 °F 71% 29.79 in 10.0 mi NW 20.7 mph 32.2 mph N/A   Mostly Cloudy
1:35 PM 42.8 °F 33.1 °F 35.6 °F 76% 29.79 in 10.0 mi NW 25.3 mph 31.1 mph N/A   Overcast
1:55 PM 44.6 °F 35.9 °F 35.6 °F 71% 29.80 in 10.0 mi NW 23.0 mph 29.9 mph N/A   Overcast
2:35 PM 42.8 °F 33.8 °F 33.8 °F 70% 29.82 in 10.0 mi NW 21.9 mph 28.8 mph N/A   Overcast
2:55 PM 42.8 °F 33.5 °F 33.8 °F 70% 29.83 in 10.0 mi WNW 23.0 mph 29.9 mph N/A   Mostly Cloudy
3:15 PM 42.8 °F 34.8 °F 32.0 °F 66% 29.83 in 10.0 mi NW 17.3 mph 28.8 mph N/A   Overcast
3:35 PM 42.8 °F 33.8 °F 32.0 °F 66% 29.82 in 10.0 mi NW 21.9 mph 28.8 mph N/A   Mostly Cloudy
3:55 PM 42.8 °F 34.5 °F 32.0 °F 66% 29.82 in 10.0 mi NW 18.4 mph 24.2 mph N/A   Scattered Clouds
4:15 PM 42.8 °F 34.8 °F 32.0 °F 66% 29.82 in 10.0 mi NW 17.3 mph 21.9 mph N/A   Clear
4:35 PM 42.8 °F 35.1 °F 32.0 °F 66% 29.83 in 10.0 mi WNW 16.1 mph 20.7 mph N/A   Clear
4:55 PM 39.2 °F 31.2 °F 32.0 °F 75% 29.83 in 10.0 mi WNW 13.8 mph 20.7 mph N/A   Clear
5:15 PM 39.2 °F 30.5 °F 30.2 °F 70% 29.84 in 10.0 mi WNW 16.1 mph 20.7 mph N/A   Clear
5:35 PM 37.4 °F 29.8 °F 30.2 °F 75% 29.85 in 10.0 mi WNW 11.5 mph - N/A   Clear
5:55 PM 35.6 °F 27.1 °F 30.2 °F 81% 29.86 in 10.0 mi WNW 12.7 mph 19.6 mph N/A   Clear
6:15 PM 35.6 °F 27.1 °F 28.4 °F 75% 29.85 in 10.0 mi WNW 12.7 mph - N/A   Clear
6:35 PM 35.6 °F 27.5 °F 28.4 °F 75% 29.86 in 10.0 mi WNW 11.5 mph - N/A   Clear
6:55 PM 33.8 °F 24.8 °F 28.4 °F 81% 29.86 in 10.0 mi West 12.7 mph - N/A   Clear
7:15 PM 33.8 °F 25.3 °F 28.4 °F 81% 29.86 in 10.0 mi West 11.5 mph - N/A   Clear
7:35 PM 33.8 °F 24.8 °F 28.4 °F 81% 29.87 in 10.0 mi West 12.7 mph - N/A   Clear
7:55 PM 32.0 °F 22.5 °F 26.6 °F 80% 29.87 in 10.0 mi West 12.7 mph - N/A   Clear
8:35 PM 32.0 °F 24.2 °F 26.6 °F 80% 29.86 in 10.0 mi WNW 9.2 mph - N/A   Clear
8:55 PM 30.2 °F 21.9 °F 24.8 °F 80% 29.85 in 10.0 mi West 9.2 mph - N/A   Clear
9:15 PM 28.4 °F 20.4 °F 23.0 °F 80% 29.84 in 10.0 mi WNW 8.1 mph - N/A   Clear
9:35 PM 26.6 °F 17.5 °F 21.2 °F 80% 29.85 in 10.0 mi West 9.2 mph - N/A   Clear
9:55 PM 30.2 °F 20.8 °F 24.8 °F 80% 29.86 in 10.0 mi West 11.5 mph - N/A   Clear
10:15 PM 28.4 °F 19.1 °F 24.8 °F 86% 29.87 in 10.0 mi West 10.4 mph - N/A   Clear
10:35 PM 28.4 °F 18.5 °F 23.0 °F 80% 29.87 in 10.0 mi West 11.5 mph - N/A   Clear
10:55 PM 28.4 °F 19.7 °F 23.0 °F 80% 29.87 in 10.0 mi West 9.2 mph - N/A   Clear
11:15 PM 26.6 °F 17.5 °F 21.2 °F 80% 29.88 in 10.0 mi West 9.2 mph - N/A   Clear
11:35 PM 26.6 °F 17.5 °F 21.2 °F 80% 29.87 in 10.0 mi WNW 9.2 mph - N/A   Clear
11:55 PM 26.6 °F 18.2 °F 21.2 °F 80% 29.87 in 10.0 mi West 8.1 mph - N/A   Clear